GFSFLT2_con_3kmhel_210.txt.gz
Helicity
184 176 158 176 195 197 192 188 187 183 191 198 201 218 200 182 193 149 146 119 80 66 146 209 256 227 216 230 249 240 211 181
204 193 191 206 202 192 193 204 217 242 236 234 247 229 215 210 184 160 164 121 67 85 162 213 286 277 298 297 281 259 170 164
222 214 235 225 204 192 200 207 235 275 289 299 278 255 246 235 199 155 129 91 82 80 171 231 321 304 330 325 273 193 160 151
255 243 269 263 238 224 229 237 268 301 324 327 358 308 284 244 200 165 152 105 81 100 176 252 344 370 356 325 277 236 210 144
263 273 301 304 282 270 262 289 340 390 385 390 371 344 320 307 274 211 190 165 126 131 186 219 292 329 381 360 311 293 235 179
285 273 308 341 331 314 294 321 378 417 404 405 412 407 378 351 292 242 214 174 137 160 232 227 284 332 376 395 373 326 278 223
331 327 302 323 343 337 350 325 347 383 401 397 428 428 387 347 310 244 204 200 156 180 310 313 325 371 401 454 455 433 395 318
387 301 332 305 288 328 406 406 369 382 355 362 396 413 396 351 313 259 222 235 187 239 342 367 386 385 451 479 508 480 417 393
353 372 376 344 292 307 315 440 472 388 358 372 388 410 395 355 341 294 249 265 260 321 416 444 457 417 430 452 488 462 386 366
319 352 389 408 417 423 336 414 431 378 380 395 371 405 386 394 371 329 269 267 334 368 434 486 464 436 414 413 418 426 348 347
357 358 394 455 488 353 323 337 383 392 463 486 416 437 398 371 372 353 303 263 325 375 398 430 464 435 406 414 390 396 331 306
308 371 442 475 420 353 354 354 359 354 462 507 487 433 420 411 414 391 311 323 343 415 461 473 451 517 538 489 413 371 313 251
269 397 497 576 425 377 368 331 318 430 526 474 438 434 482 420 469 398 241 296 384 446 480 532 517 600 708 567 523 382 274 198
308 331 459 374 321 291 298 313 300 339 377 352 424 418 477 478 458 431 356 373 419 409 509 568 554 605 602 728 492 436 376 241
303 284 259 247 260 361 379 415 363 372 378 381 351 390 491 452 392 380 399 367 365 332 484 504 564 484 489 481 496 360 477 291
378 390 339 248 149 216 245 259 268 266 338 383 266 347 450 330 441 345 374 409 356 408 479 439 495 513 433 498 391 331 500 386
387 304 314 216 177 181 182 183 214 248 276 265 286 272 291 276 293 364 374 461 449 486 433 446 469 553 563 575 467 357 422 511
107 74 132 83 84 127 165 132 130 199 195 179 209 284 333 282 371 541 369 386 432 422 402 473 513 498 511 531 539 527 442 456
-66 -109 -3 31 23 14 58 61 66 129 158 161 195 214 276 256 299 455 383 276 372 464 419 498 499 535 455 487 453 387 356 389
-130 -49 -160 -160 -1 -42 24 26 108 111 157 205 143 173 218 250 304 341 383 372 337 286 492 514 506 522 449 426 451 386 305 356

GFSFLT2_con_3kmhel_216.txt.gz
Helicity
159 141 129 162 197 211 210 219 228 246 255 264 254 244 243 223 201 227 236 214 192 167 159 142 147 170 200 216 197 171 149 127
191 164 155 165 177 183 186 210 239 267 285 280 284 280 275 255 224 234 206 193 175 161 156 146 162 187 214 207 209 186 156 143
175 183 175 170 172 176 194 204 258 296 286 285 309 320 317 291 260 250 232 199 152 156 171 188 196 242 248 249 226 175 170 165
175 181 191 190 183 173 181 197 249 291 317 332 351 366 369 344 287 251 250 233 204 214 209 198 228 255 273 263 244 191 185 135
205 226 219 202 231 224 196 232 292 305 315 350 395 417 408 374 342 326 304 284 319 287 295 243 230 278 280 268 253 219 173 156
212 208 223 201 193 218 236 278 338 363 375 385 470 504 465 402 394 413 402 376 366 360 348 343 325 313 286 296 259 237 184 154
268 296 307 291 249 258 274 316 337 391 405 457 486 472 453 470 431 435 430 389 386 390 388 395 369 349 325 306 282 252 207 171
370 320 316 342 302 261 306 299 305 382 395 404 419 478 503 424 467 473 481 384 377 390 408 419 418 389 387 346 324 299 251 192
277 318 343 339 302 293 293 292 330 347 370 408 424 463 506 537 470 452 454 457 462 476 482 500 480 454 433 379 356 330 284 242
244 269 289 308 295 316 310 323 344 339 349 425 445 504 506 516 513 415 468 488 513 485 520 518 496 469 465 420 402 373 330 312
236 248 246 225 219 289 289 296 323 250 295 349 401 456 476 472 492 435 352 538 515 568 530 515 545 511 514 490 453 415 368 330
181 208 154 201 221 257 308 262 243 246 265 279 362 363 354 384 523 592 531 427 537 681 542 471 528 608 610 570 490 423 396 385
327 218 174 192 229 219 297 268 269 225 224 239 299 298 283 256 381 566 563 620 585 617 339 350 583 694 736 669 636 511 461 398
239 275 346 301 264 335 347 348 274 232 208 205 263 279 296 324 338 477 555 560 556 642 836 693 463 376 511 712 630 533 458 397
368 352 309 278 316 317 368 330 228 223 196 175 192 202 234 279 361 417 454 495 637 591 580 832 748 436 351 612 705 578 554 453
333 350 263 157 89 189 304 303 239 202 188 166 191 191 206 236 280 411 362 534 585 715 532 662 478 537 268 603 436 556 658 463
244 203 214 162 107 40 15 146 216 237 248 218 153 177 181 202 254 367 461 570 454 581 339 595 743 446 560 666 495 379 425 551
161 139 135 98 72 61 48 -9 22 149 92 142 161 146 139 174 214 289 388 300 457 441 479 373 608 557 586 580 416 510 390 447
70 86 82 31 7 -15 -39 -25 -30 77 67 107 151 219 213 88 174 236 287 241 315 355 325 380 441 533 647 462 406 309 338 457
38 39 27 30 3 -52 -38 -39 -44 6 -35 84 137 158 111 83 120 154 147 214 260 267 388 406 501 612 483 431 360 346 383 348

GFSFLT2_con_3kmhel_222.txt.gz
Helicity
104 114 116 124 133 156 193 192 191 203 217 244 274 274 264 227 205 178 152 154 183 175 175 179 180 184 171 143 91 23 76 63
106 125 125 118 109 109 148 174 187 204 222 243 270 273 259 232 224 199 160 172 186 178 198 222 212 218 191 170 112 64 91 54
130 125 147 139 132 135 135 155 179 185 200 209 241 186 202 191 162 225 199 198 200 199 207 227 249 216 210 201 130 66 99 53
132 143 138 147 137 123 140 144 149 149 154 174 166 165 211 213 206 272 239 238 233 227 242 232 212 200 179 182 87 109 62 84
79 101 113 133 143 167 193 220 212 179 175 176 184 199 274 266 353 263 203 225 225 225 251 219 161 188 200 152 149 146 89 84
112 71 94 112 117 129 174 243 276 270 209 207 245 286 307 331 374 260 252 299 273 248 246 209 203 174 178 182 218 139 137 115
78 58 54 73 89 101 135 169 227 282 281 260 289 288 358 412 375 341 304 374 325 306 280 233 232 238 177 191 205 134 151 148
57 42 66 70 72 81 125 155 198 245 287 305 320 340 394 393 382 389 427 448 393 360 378 342 314 279 219 156 133 152 150 166
93 86 53 64 51 74 92 102 144 207 242 257 287 331 363 399 426 470 452 511 393 454 543 516 360 364 277 259 144 163 141 166
154 111 85 77 111 92 108 112 129 147 203 212 248 293 325 335 382 444 511 558 587 637 669 231 285 330 318 348 303 186 219 177
201 173 186 140 93 106 127 146 175 181 196 228 230 266 281 342 357 423 532 555 608 593 254 255 381 386 514 517 546 434 265 201
179 146 189 231 190 152 166 178 200 211 227 266 237 248 270 265 318 459 512 533 491 410 389 395 514 600 622 840 428 377 296 241
203 170 181 157 201 177 162 172 188 260 248 267 227 199 241 269 343 441 498 453 402 375 455 421 464 535 695 580 460 617 410 317
259 270 242 186 159 162 130 132 215 351 353 275 267 222 222 285 336 433 446 422 402 354 426 496 572 539 478 488 436 585 513 501
303 288 262 208 216 177 162 141 135 171 245 374 437 254 219 225 281 356 399 407 395 373 445 440 510 423 452 455 543 470 570 564
300 303 289 274 261 215 205 194 185 146 139 88 241 271 292 294 220 301 341 358 364 392 426 435 463 452 426 490 542 712 761 677
305 306 281 252 232 230 222 191 174 198 164 140 38 77 69 340 403 120 245 299 439 380 381 352 440 397 491 572 542 649 632 562
259 229 225 214 206 167 184 187 162 182 190 180 92 78 122 67 68 286 124 115 203 263 304 289 441 375 399 416 542 659 494 658
198 177 174 147 125 103 112 107 87 108 114 119 161 152 102 73 58 149 139 224 153 229 237 216 338 349 407 514 514 385 440 529
132 119 131 132 136 123 104 126 139 119 86 84 91 97 87 40 43 14 56 85 129 152 160 270 251 389 415 363 445 326 427 609

GFSFLT2_con_3kmhel_225.txt.gz
Helicity
82 90 134 124 128 125 133 141 156 185 212 214 224 220 212 190 176 163 148 131 132 155 150 159 181 167 142 96 30 -18 24 132
71 92 118 130 125 132 140 133 149 159 198 214 235 239 219 195 178 162 155 162 158 153 149 167 186 184 151 101 59 6 30 141
78 88 94 104 111 132 154 146 152 167 178 188 216 146 153 160 141 178 167 177 188 181 155 166 204 190 153 121 86 62 88 65
90 95 122 115 107 110 125 155 151 156 172 182 179 164 166 154 159 208 214 227 210 188 173 189 181 147 142 142 94 41 156 43
105 114 100 129 121 103 142 118 160 173 174 200 200 192 174 214 186 212 213 223 189 185 194 165 154 168 145 133 90 130 127 19
65 94 119 113 101 118 122 135 147 158 165 202 229 237 230 243 235 245 242 229 235 233 228 185 175 168 163 111 74 156 77 52
236 153 126 96 116 75 106 98 138 140 137 192 215 239 227 242 228 242 230 267 280 300 254 217 183 194 192 129 126 150 34 82
163 142 178 112 82 94 82 122 113 98 128 138 208 212 212 218 235 248 261 268 318 310 276 244 216 215 237 186 178 155 86 87
159 124 125 148 107 76 111 88 147 109 106 129 154 168 195 219 271 323 321 358 406 425 340 316 416 340 300 250 217 208 216 191
203 208 224 230 231 89 108 124 140 140 145 120 127 167 226 250 315 355 377 512 542 538 557 538 495 461 360 333 285 282 296 289
149 152 166 153 164 153 91 129 152 155 134 141 106 123 190 294 310 346 456 532 541 601 655 573 567 472 128 218 317 236 353 389
230 194 199 167 173 206 227 228 179 140 154 144 134 179 172 289 305 410 450 505 572 610 626 564 421 258 236 251 266 227 359 489
179 161 119 116 93 112 177 241 246 230 258 224 154 214 226 255 343 449 452 497 524 543 589 481 415 310 510 516 451 367 409 488
138 133 116 108 98 115 83 95 130 166 191 208 227 305 156 243 226 406 455 478 467 486 512 502 500 560 471 395 444 411 449 429
199 179 155 127 110 102 118 133 60 90 162 183 176 229 370 318 232 336 379 415 482 492 507 497 562 548 432 463 511 427 458 282
207 210 195 161 109 114 105 61 92 135 89 103 155 216 215 192 449 326 205 421 435 445 461 512 597 630 460 381 363 441 438 325
148 125 126 147 147 158 152 109 133 138 134 97 84 100 112 164 133 277 297 359 272 182 334 548 581 568 561 411 494 452 345 421
96 84 134 176 158 181 196 159 115 138 148 134 119 76 56 86 143 154 117 181 202 267 268 289 441 340 355 374 421 506 506 453
87 133 145 143 168 194 189 181 197 195 169 149 134 122 51 -2 32 71 110 103 74 204 185 133 284 315 328 402 347 366 377 431
137 93 96 140 155 165 166 141 135 135 144 205 213 195 146 108 50 -16 -26 34 82 101 136 148 202 173 248 313 410 277 320 381

GFSFLT2_con_3kmhel_228.txt.gz
Helicity
72 66 94 113 109 114 120 126 130 123 124 148 155 158 163 154 148 138 132 131 118 118 111 108 116 109 78 36 8 11 13 107
100 83 92 106 118 124 123 129 150 143 141 160 170 170 170 169 157 144 137 139 127 135 115 103 110 110 87 44 1 -6 36 89
81 111 101 107 112 123 136 130 141 135 141 165 191 157 146 148 143 156 162 163 156 157 137 122 117 112 100 73 29 17 56 56
113 63 111 107 91 141 149 134 144 156 151 162 185 184 192 172 169 199 195 197 193 168 154 139 149 139 124 100 94 37 64 122
62 132 94 116 95 111 147 112 126 139 138 156 189 191 206 215 205 240 272 279 267 237 223 208 181 165 157 155 121 57 63 157
263 398 125 126 114 158 121 200 119 119 133 150 180 187 202 238 247 296 290 308 288 282 274 244 215 167 199 162 131 89 131 253
198 295 271 327 117 124 153 150 100 91 103 133 156 183 193 213 239 323 315 296 270 301 299 279 247 220 220 167 132 106 159 269
175 235 228 218 227 134 122 160 119 102 105 78 115 155 194 191 201 248 337 310 291 296 321 323 277 265 224 243 147 132 131 270
178 191 177 210 260 259 138 143 140 137 145 115 107 113 106 114 147 204 273 329 349 339 387 322 284 259 254 254 229 200 125 239
156 189 205 224 256 289 243 160 137 136 144 141 134 110 99 112 152 200 257 298 388 445 505 422 349 359 393 343 332 294 218 270
205 144 165 163 124 142 135 145 192 220 221 177 127 131 122 117 145 190 203 305 430 485 547 605 578 486 439 410 356 324 342 387
130 94 113 140 128 90 80 70 104 113 124 149 142 130 147 97 146 186 305 410 448 481 556 578 588 557 492 416 383 322 372 386
104 75 60 11 36 75 50 65 28 40 49 73 106 99 97 145 135 195 258 339 419 471 550 556 566 580 569 571 500 380 249 306
114 101 84 63 25 55 52 57 63 21 27 16 44 67 96 97 171 161 250 364 403 519 487 495 548 715 594 544 521 389 374 275
119 118 126 93 75 62 32 18 20 34 65 38 24 32 77 77 96 127 232 248 320 401 542 589 611 640 645 659 748 471 523 413
113 148 150 112 79 62 70 32 41 87 71 -4 -27 42 49 69 93 59 147 208 272 259 367 602 606 523 679 817 332 587 486 506
174 107 81 66 68 66 75 51 116 112 86 21 54 89 81 36 44 32 6 -5 162 157 264 196 320 464 459 531 507 510 518 465
119 44 56 63 122 189 206 158 159 133 70 34 -1 101 136 135 73 29 12 23 33 36 228 215 239 229 310 393 362 554 582 355
125 158 158 198 216 190 165 191 166 152 169 161 102 104 162 163 184 142 80 87 42 23 -43 32 152 197 347 403 547 474 542 317
170 174 115 107 71 73 77 65 86 88 42 93 114 115 106 87 55 120 125 76 -60 -31 59 52 70 89 177 245 291 300 343 463

GFSFLT2_con_3kmhel_231.txt.gz
Helicity
61 63 66 76 82 82 84 82 94 88 81 94 110 110 107 105 107 107 115 111 98 100 96 81 69 51 25 -1 19 44 120 167
77 67 97 119 104 100 94 86 82 85 80 78 86 92 107 122 127 131 142 131 112 115 107 95 81 64 36 10 12 36 72 108
72 67 60 88 123 119 123 108 100 88 78 78 92 102 113 122 131 136 138 138 130 140 127 117 101 82 55 26 21 41 73 102
100 113 66 31 35 75 116 137 128 115 105 101 112 117 130 126 123 129 152 169 164 164 143 133 144 124 84 47 47 31 89 139
267 189 125 115 54 78 77 115 133 127 127 128 126 125 136 153 180 176 199 202 231 214 200 204 203 188 137 113 83 35 86 187
343 368 352 246 129 135 131 118 105 109 106 123 161 149 147 158 179 211 259 301 317 303 272 251 235 228 193 168 119 82 83 202
238 310 318 301 260 206 141 131 129 114 122 134 169 202 182 187 201 256 288 323 327 316 295 292 274 256 232 216 162 111 129 237
152 193 265 300 351 334 261 149 120 91 93 104 142 194 211 197 200 258 290 317 358 357 334 314 306 290 259 250 206 149 195 281
192 201 253 253 240 297 333 334 233 228 176 108 79 78 114 135 157 185 231 300 316 328 346 352 309 291 269 292 263 200 275 336
127 180 201 207 210 144 176 211 159 128 118 117 139 127 137 111 110 130 156 250 306 334 359 409 362 331 331 300 313 242 322 387
150 153 161 134 145 138 123 97 84 83 86 63 43 29 69 96 83 89 106 135 211 296 394 445 451 408 366 346 357 301 364 424
126 107 130 84 105 47 74 79 95 96 83 65 36 6 -18 4 42 67 81 101 149 250 302 453 521 446 415 398 362 291 372 423
74 84 119 26 57 77 98 71 69 82 109 86 72 59 45 45 25 62 99 97 123 163 319 426 470 489 462 513 564 487 453 478
57 66 105 67 33 23 28 45 40 58 27 75 55 61 77 74 69 63 54 107 130 168 305 434 476 557 564 619 583 897 527 513
93 71 94 62 48 29 31 3 -2 -19 -13 -50 -25 42 32 34 82 78 53 46 102 118 163 409 307 456 530 596 526 506 593 673
99 56 73 81 73 27 -10 4 42 -2 9 6 -71 -66 5 115 87 108 79 66 49 -10 55 220 132 349 546 528 536 612 416 574
87 94 101 103 44 38 48 33 51 60 67 64 57 47 87 77 148 158 146 96 72 63 -90 62 61 130 105 487 644 637 568 390
89 75 102 133 137 84 66 108 149 166 155 160 102 90 97 110 100 150 118 103 73 90 43 19 5 26 187 171 323 477 342 609
75 118 115 125 129 148 73 86 85 72 60 91 86 68 50 42 85 110 94 36 139 145 103 108 88 -158 -195 88 165 169 470 410
141 136 157 219 194 97 66 36 36 55 60 80 97 86 89 79 106 87 38 51 29 -8 46 76 54 -19 -48 -148 -23 181 201 340

GFSFLT2_con_3kmhel_234.txt.gz
Helicity
44 41 47 55 57 55 55 54 54 58 60 64 72 72 73 80 90 87 85 65 58 67 72 62 52 41 27 61 73 122 133 113
56 52 59 67 73 68 76 80 70 57 57 54 63 60 73 89 95 93 86 80 83 88 82 74 62 50 40 53 77 142 140 131
47 49 58 61 67 66 79 80 87 86 74 66 74 83 77 83 106 116 125 118 108 112 101 96 83 62 52 48 75 137 148 131
131 84 70 70 49 60 93 102 88 101 99 97 100 96 95 84 86 91 113 128 132 130 125 118 116 106 79 62 98 111 158 159
321 233 142 105 69 76 48 48 66 91 103 127 120 103 117 123 119 121 126 131 159 158 151 160 179 163 131 118 118 137 136 169
350 335 297 290 239 118 103 81 79 61 60 95 125 142 119 128 147 150 168 195 199 207 205 206 211 189 168 142 134 163 151 170
329 306 330 348 329 273 178 118 93 73 86 80 117 114 117 145 170 190 200 221 220 231 232 237 227 215 189 188 161 167 178 217
239 302 264 265 303 326 335 332 286 237 206 185 137 99 82 97 116 138 183 236 244 255 271 274 261 254 229 207 196 200 209 245
209 222 260 327 313 327 321 302 298 270 260 191 119 81 84 68 63 54 85 163 212 221 232 279 273 261 221 226 189 178 264 271
224 218 259 249 254 274 267 222 203 209 175 137 156 144 96 83 86 69 51 96 124 148 197 243 240 235 247 232 245 254 291 312
166 206 185 170 154 130 149 173 184 171 129 108 111 96 105 86 67 81 94 90 86 121 175 235 252 264 244 251 264 308 366 371
167 117 109 78 49 62 65 74 85 84 93 115 109 99 89 72 78 86 80 85 94 103 96 160 268 308 306 268 297 296 349 403
214 169 77 41 23 7 1 20 27 48 86 113 111 119 146 139 111 100 104 104 103 105 122 131 148 279 343 343 288 327 316 397
209 140 112 75 27 10 2 -42 -65 -72 -37 2 42 82 103 112 123 102 122 147 157 140 134 145 190 165 307 335 408 490 492 365
120 93 69 54 39 -36 -51 -124 -108 -105 -102 -91 -83 -46 -25 26 70 99 121 116 146 158 120 115 99 47 91 427 440 572 556 595
38 41 20 -4 1 -24 -109 -66 14 7 -7 17 18 6 15 4 79 83 93 189 219 211 194 167 117 38 47 120 144 448 497 473
24 10 4 -15 30 -21 76 57 23 37 57 53 64 68 70 83 115 149 142 169 270 268 242 226 159 89 -89 -93 -31 115 164 393
64 61 35 103 121 166 96 45 24 35 36 22 28 44 51 52 93 102 134 154 101 120 134 121 106 133 64 -6 -100 -12 202 180
6 62 138 150 172 125 93 57 46 24 10 8 30 33 26 57 123 105 113 129 110 55 55 -4 32 154 73 60 39 -129 -237 155
116 142 183 202 158 108 78 44 20 15 34 52 55 77 85 88 54 40 49 75 86 80 52 1 -45 -37 113 99 43 -61 -46 -186